[[{"header":{"parameterUnit":"m.s-1","parameterCategory":1,"la1":30.2991,"la2":30.254,"lo1":-89.0895,"lo2":-89.0444,"dy":0.0017,"dx":0.0017,"nx":28,"ny":28,"refTime":"2024-03-16T21:00:00:Z","depth":0,"parameterNumber":2,"parameterNumberName":"U-component_of_WINDS"},"data":[0,0,0,0,0,0,0,0,0,0,0,0,0,0,0,0,0,0,0,0,0,0,0,0,0,0,0,0,0,0,0,0,0,0,0,0,0,0,0,0,0,0,0,0,0,0,0,0,0,0,0,0,0,0,0,0,0,0,0.3449,0.3447,0,0.3322,0.332,0.3319,0.3263,0.3263,0.3263,0.3263,0.3134,0.3131,0.3127,0,0,0,0,0,0,0,0,0,0,0,0,0,0.3643,0.364,0.3449,0.3447,0.3446,0.3322,0.332,0.3319,0.3263,0.3263,0.3263,0.3263,0.3135,0.3131,0.3127,0,0,0,0,0,0,0,0,0,0,0,0,0,0.3542,0.3638,0.3449,0.3403,0.3398,0.3322,0.332,0.3318,0.3263,0.3263,0.3263,0.3264,0.3137,0.3132,0.3126,0.3088,0,0,0.311,0.3107,0,0,0,0,0,0,0,0,0.3547,0.3534,0.3411,0.3406,0.34,0.3308,0.3341,0.3241,0.3263,0.3314,0.3263,0.3264,0.3192,0.3182,0.3158,0.3082,0.3076,0.3109,0.3106,0.3104,0.3102,0,0,0,0,0,0,0,0.3554,0.354,0.3399,0.341,0.3403,0.3388,0.3374,0.3322,0.3253,0.331,0.3305,0.3291,0.3189,0.3163,0.3154,0.3074,0.3109,0.3105,0.3101,0.3099,0.2958,0.2958,0,0,0,0,0,0,0.3569,0.3546,0.3403,0.3395,0.3476,0.3385,0.3369,0.3338,0.3254,0.3241,0.3291,0.3289,0.3172,0.3161,0.315,0.3098,0.3104,0.3099,0.3095,0.2959,0.2958,0.2958,0,0,0,0,0,0,0.3573,0.3557,0.3408,0.3469,0.3449,0.3381,0.3346,0.3335,0.3309,0.3239,0.3227,0.3277,0.3172,0.3157,0.3103,0.3092,0.3096,0.3091,0.296,0.2959,0.2958,0.2995,0,0,0,0,0,0,0.3579,0.3559,0.3543,0.3469,0.3446,0.3364,0.3346,0.3332,0.33,0.3296,0.3223,0.3211,0.3171,0.3111,0.3098,0.3085,0.3087,0.296,0.2959,0.2958,0.2994,0.2995,0.2996,0,0,0,0,0,0.3586,0.3559,0.3543,0.3526,0.3425,0.3363,0.335,0.3304,0.3299,0.3283,0.3238,0.3214,0.3096,0.3106,0.309,0.3076,0.2961,0.2959,0.2958,0.2994,0.2995,0.2996,0,0,0,0,0,0,0.3634,0.3549,0.353,0.3478,0.3428,0.3354,0.3332,0.3307,0.3258,0.3256,0.3201,0.3185,0.3136,0.31,0.3114,0.3034,0.3026,0.3022,0.3058,0.3059,0.306,0.307,0.3083,0,0,0,0,0,0.3639,0.3596,0.3523,0.3484,0.346,0.3401,0.3372,0.334,0.3287,0.3266,0.3217,0.3166,0.3117,0.3086,0.3038,0.2989,0.2972,0.2971,0.2972,0.2973,0.297,0.294,0.2939,0.2954,0.2954,0.2954,0,0,0.3648,0.3596,0.3572,0.3492,0.345,0.3406,0.3383,0.3338,0.3304,0.3259,0.3204,0.3167,0.3106,0.3054,0.3029,0.3023,0.2962,0.2972,0.2974,0.2969,0.2939,0.2938,0.2937,0.2953,0.2954,0.2954,0,0,0.3642,0.3598,0.356,0.3518,0.3455,0.3415,0.3406,0.3335,0.3308,0.3253,0.3217,0.3177,0.3095,0.3052,0.302,0.2997,0.2972,0.2983,0.2988,0.296,0.2959,0.2958,0.2948,0.2946,0.298,0.298,0.298,0,0.3661,0.3593,0.3544,0.35,0.3466,0.3422,0.3384,0.3345,0.3269,0.3246,0.3241,0.3136,0.3092,0.3029,0.3023,0.2999,0.2987,0.2991,0.2963,0.2961,0.2959,0.295,0.2947,0.2982,0.2981,0.2981,0.2981,0,0.3619,0.3573,0.355,0.3477,0.344,0.34,0.3344,0.3313,0.3285,0.3246,0.3189,0.3135,0.3074,0.3057,0.3029,0.2989,0.2988,0.2974,0.2965,0.296,0.295,0.2946,0.2984,0.2983,0.2983,0.2982,0,0,0.364,0.354,0.3532,0.3498,0.3424,0.3387,0.3344,0.3284,0.3258,0.3207,0.3169,0.31,0.3085,0.3049,0.3016,0.2991,0.2975,0.298,0.2977,0.298,0.2927,0.2938,0.2934,0.2958,0.2958,0.2957,0.2931,0,0.3623,0.3543,0.3498,0.3437,0.3393,0.335,0.3312,0.3263,0.3225,0.3182,0.314,0.3091,0.3077,0.3055,0.3028,0.2983,0.2964,0.2984,0.2922,0.292,0.2938,0.2929,0.2941,0.2919,0.2927,0.2927,0.2926,0,0.3592,0.3542,0.3476,0.3407,0.3386,0.3353,0.3294,0.3254,0.3196,0.317,0.3129,0.3096,0.3048,0.3043,0.2976,0.2991,0.2963,0.2937,0.2935,0.2927,0.2923,0.292,0.2912,0.2908,0.292,0.292,0.2921,0,0.3613,0.3528,0.3478,0.345,0.3368,0.3345,0.331,0.3253,0.3219,0.3168,0.3145,0.3089,0.3058,0.3015,0.2967,0.2968,0.2904,0.2896,0.2881,0.2882,0.2869,0.287,0.2855,0.2852,0.2852,0.2852,0.2852,0,0.3598,0.356,0.3486,0.3455,0.341,0.3358,0.3316,0.3277,0.3226,0.3186,0.3146,0.311,0.3049,0.3005,0.2967,0.2917,0.2903,0.2881,0.2871,0.2884,0.2887,0.2864,0.2864,0.2851,0.2852,0.2852,0.2852,0,0.3614,0.3563,0.3505,0.3432,0.3412,0.3383,0.3319,0.3287,0.3247,0.3197,0.3183,0.3119,0.3065,0.3013,0.2941,0.2916,0.2865,0.2853,0.2884,0.2879,0.2866,0.2868,0.2836,0.2828,0.2831,0.2831,0.2832,0,0.3608,0.3577,0.35,0.3471,0.3436,0.3389,0.3355,0.3302,0.3268,0.3199,0.3176,0.3118,0.307,0.2985,0.2932,0.2877,0.2862,0.2855,0.2854,0.2867,0.2861,0.2863,0.2859,0.2856,0.2856,0.2856,0.2856,0,0.3602,0.3578,0.353,0.3473,0.3433,0.3385,0.3336,0.3315,0.3252,0.3216,0.316,0.3122,0.3047,0.2991,0.2929,0.2892,0.2863,0.2857,0.285,0.2863,0.2882,0.2871,0.2887,0.2858,0.2858,0.2858,0.2858,0.2858,0.3606,0.3576,0.3517,0.3465,0.3423,0.3378,0.3344,0.3299,0.3251,0.3187,0.3158,0.3101,0.3043,0.2957,0.292,0.2874,0.2868,0.2859,0.2856,0.2854,0.2857,0.289,0.2863,0.2863,0.2863,0.2863,0.2863,0,0.3598,0.3557,0.351,0.3442,0.3401,0.3378,0.3322,0.3289,0.3239,0.3188,0.3141,0.3076,0.302,0.2963,0.2904,0.2878,0.2864,0.2865,0.2866,0.2857,0.2866,0.2878,0.2877,0.2877,0.2877,0.2877,0.2877,0.2877,0.3588,0.3537,0.3506,0.3433,0.3392,0.3336,0.3306,0.3264,0.3223,0.3152,0.3106,0.3069,0.3014,0.2951,0.2899,0.2883,0.2863,0.2867,0.2848,0.2858,0.2857,0.2856,0.2866,0.2864,0.2864,0.2843,0.2842,0.2842]},{"header":{"parameterUnit":"m.s-1","parameterCategory":1,"la1":30.2991,"la2":30.254,"lo1":-89.0895,"lo2":-89.0444,"dy":0.0017,"dx":0.0017,"nx":28,"ny":28,"refTime":"2024-03-16T21:00:00:Z","depth":0,"parameterNumber":3,"parameterNumberName":"V-component_of_WINDS"},"data":[0,0,0,0,0,0,0,0,0,0,0,0,0,0,0,0,0,0,0,0,0,0,0,0,0,0,0,0,0,0,0,0,0,0,0,0,0,0,0,0,0,0,0,0,0,0,0,0,0,0,0,0,0,0,0,0,0,0,-0.0295,-0.0295,0,-0.0278,-0.0278,-0.0278,-0.0213,-0.0211,-0.021,-0.0209,-0.0195,-0.0196,-0.0197,0,0,0,0,0,0,0,0,0,0,0,0,0,-0.0271,-0.0272,-0.0295,-0.0295,-0.0295,-0.0278,-0.0278,-0.0278,-0.0213,-0.0211,-0.021,-0.0208,-0.0195,-0.0196,-0.0197,0,0,0,0,0,0,0,0,0,0,0,0,0,-0.0271,-0.0272,-0.0295,-0.026,-0.0257,-0.0278,-0.0278,-0.0278,-0.0214,-0.0211,-0.0209,-0.0207,-0.0194,-0.0196,-0.0197,-0.0252,0,0,-0.0202,-0.0203,0,0,0,0,0,0,0,0,-0.0271,-0.0272,-0.0266,-0.0263,-0.0259,-0.0245,-0.0264,-0.0269,-0.0214,-0.023,-0.0208,-0.0206,-0.0214,-0.0214,-0.0216,-0.0251,-0.0251,-0.0202,-0.0203,-0.0204,-0.0204,0,0,0,0,0,0,0,-0.0271,-0.0272,-0.0289,-0.0266,-0.0262,-0.0245,-0.0243,-0.0265,-0.0235,-0.0229,-0.0224,-0.0223,-0.0212,-0.0214,-0.0215,-0.0251,-0.0202,-0.0204,-0.0205,-0.0205,-0.0323,-0.0325,0,0,0,0,0,0,-0.0276,-0.0273,-0.0289,-0.0288,-0.026,-0.0248,-0.0245,-0.0252,-0.0235,-0.023,-0.0224,-0.022,-0.0213,-0.0213,-0.0214,-0.0272,-0.0204,-0.0205,-0.0206,-0.0321,-0.0324,-0.0326,0,0,0,0,0,0,-0.0276,-0.0278,-0.029,-0.0279,-0.0279,-0.025,-0.0259,-0.0253,-0.0255,-0.0231,-0.0226,-0.0233,-0.0211,-0.0212,-0.0241,-0.0271,-0.0206,-0.0207,-0.0318,-0.0322,-0.0325,-0.0392,0,0,0,0,0,0,-0.0275,-0.0278,-0.0299,-0.028,-0.028,-0.0318,-0.0261,-0.0254,-0.0258,-0.0251,-0.0237,-0.0233,-0.0209,-0.0239,-0.0243,-0.0272,-0.0209,-0.0315,-0.032,-0.0324,-0.0387,-0.0398,-0.0406,0,0,0,0,0,-0.0275,-0.0322,-0.0301,-0.0303,-0.0306,-0.032,-0.032,-0.029,-0.0261,-0.0281,-0.0264,-0.0234,-0.0267,-0.0243,-0.0246,-0.0277,-0.0313,-0.0319,-0.0323,-0.0383,-0.0396,-0.0406,0,0,0,0,0,0,-0.0349,-0.0319,-0.0295,-0.0337,-0.0331,-0.0309,-0.0334,-0.0305,-0.0309,-0.0303,-0.0267,-0.0264,-0.0298,-0.029,-0.0264,-0.0325,-0.0285,-0.0291,-0.0329,-0.0341,-0.035,-0.0351,-0.021,0,0,0,0,0,-0.0369,-0.0383,-0.0356,-0.0395,-0.0393,-0.0364,-0.0369,-0.0346,-0.0339,-0.0337,-0.0323,-0.0318,-0.0326,-0.0333,-0.034,-0.0385,-0.0379,-0.0407,-0.0417,-0.0425,-0.043,-0.0448,-0.0459,-0.0342,-0.0342,-0.0342,0,0,-0.0414,-0.0398,-0.041,-0.041,-0.0402,-0.0416,-0.0363,-0.0381,-0.039,-0.034,-0.0365,-0.0354,-0.0346,-0.0382,-0.0397,-0.0376,-0.0461,-0.0431,-0.0438,-0.0439,-0.0455,-0.0466,-0.0476,-0.0345,-0.0345,-0.0344,0,0,-0.05,-0.0491,-0.052,-0.0512,-0.05,-0.0479,-0.0486,-0.0467,-0.0456,-0.0481,-0.0441,-0.0452,-0.0469,-0.0463,-0.0462,-0.0538,-0.0509,-0.0542,-0.0592,-0.061,-0.0619,-0.0627,-0.0651,-0.066,-0.0547,-0.0548,-0.0548,0,-0.0557,-0.0576,-0.054,-0.0558,-0.0558,-0.0509,-0.0537,-0.0532,-0.0524,-0.0524,-0.05,-0.0516,-0.0507,-0.0538,-0.0556,-0.0558,-0.0563,-0.0544,-0.062,-0.0628,-0.0635,-0.0657,-0.0667,-0.0551,-0.0551,-0.0551,-0.055,0,-0.0644,-0.0657,-0.0682,-0.0671,-0.0673,-0.0697,-0.0664,-0.067,-0.0645,-0.0626,-0.0649,-0.0635,-0.0636,-0.0642,-0.062,-0.0668,-0.0655,-0.0627,-0.0586,-0.065,-0.0671,-0.0679,-0.0557,-0.0556,-0.0554,-0.0553,0,0,-0.0781,-0.0745,-0.0754,-0.0746,-0.0726,-0.0736,-0.0755,-0.0753,-0.0758,-0.0752,-0.0766,-0.0778,-0.0749,-0.0748,-0.0724,-0.074,-0.0796,-0.0708,-0.0707,-0.0723,-0.0844,-0.0865,-0.0875,-0.0776,-0.0777,-0.0779,-0.0844,0,-0.0861,-0.0891,-0.0856,-0.0894,-0.0903,-0.0854,-0.087,-0.0859,-0.084,-0.0845,-0.0824,-0.0832,-0.0795,-0.0793,-0.0807,-0.0787,-0.082,-0.0782,-0.0787,-0.0788,-0.079,-0.0887,-0.091,-0.0972,-0.0852,-0.0853,-0.0854,0,-0.0959,-0.0953,-0.0991,-0.0962,-0.0965,-0.0981,-0.0973,-0.0979,-0.0963,-0.0948,-0.0943,-0.0912,-0.0927,-0.0886,-0.0905,-0.0879,-0.0879,-0.0869,-0.087,-0.0869,-0.0825,-0.0886,-0.0992,-0.1,-0.0867,-0.0866,-0.0865,0,-0.1051,-0.1054,-0.1074,-0.107,-0.1038,-0.1049,-0.1037,-0.1019,-0.1018,-0.1011,-0.1009,-0.1006,-0.1003,-0.1,-0.0968,-0.0942,-0.0989,-0.0946,-0.0975,-0.0976,-0.0988,-0.0987,-0.1093,-0.099,-0.099,-0.099,-0.099,0,-0.1143,-0.1168,-0.1114,-0.1128,-0.1152,-0.111,-0.1135,-0.1118,-0.1101,-0.1108,-0.1066,-0.1074,-0.1031,-0.1034,-0.1009,-0.1025,-0.1026,-0.1012,-0.1005,-0.1015,-0.1017,-0.1015,-0.1009,-0.0992,-0.0992,-0.0991,-0.0991,0,-0.1251,-0.1217,-0.1236,-0.1202,-0.1194,-0.1213,-0.1184,-0.1193,-0.117,-0.1179,-0.1179,-0.1143,-0.1143,-0.1109,-0.1104,-0.1087,-0.1113,-0.1099,-0.1118,-0.1113,-0.1142,-0.1139,-0.1249,-0.126,-0.1152,-0.1153,-0.1154,0,-0.1312,-0.1328,-0.1295,-0.1295,-0.1284,-0.1287,-0.1283,-0.1242,-0.1241,-0.122,-0.1232,-0.1228,-0.1223,-0.1225,-0.1197,-0.1191,-0.1176,-0.1214,-0.1175,-0.1182,-0.1173,-0.1171,-0.1171,-0.1223,-0.1224,-0.1226,-0.1226,0,-0.1422,-0.1402,-0.14,-0.1389,-0.1386,-0.1376,-0.1364,-0.1367,-0.1321,-0.1322,-0.132,-0.1315,-0.1306,-0.1302,-0.1289,-0.1276,-0.1243,-0.1238,-0.1244,-0.1255,-0.1263,-0.1256,-0.1139,-0.1237,-0.1236,-0.1235,-0.1234,-0.1234,-0.1506,-0.1516,-0.1492,-0.1489,-0.1474,-0.1462,-0.1468,-0.1442,-0.144,-0.1428,-0.1403,-0.1404,-0.1382,-0.1362,-0.135,-0.1349,-0.133,-0.1339,-0.1341,-0.1344,-0.1348,-0.1264,-0.1347,-0.1347,-0.1347,-0.1346,-0.1346,0,-0.1612,-0.1592,-0.1589,-0.1571,-0.1567,-0.1533,-0.1516,-0.1515,-0.1516,-0.1498,-0.1492,-0.1487,-0.148,-0.145,-0.144,-0.1445,-0.1429,-0.1443,-0.1442,-0.1438,-0.1368,-0.1362,-0.1456,-0.1456,-0.1456,-0.1456,-0.1456,-0.1456,-0.1666,-0.168,-0.1656,-0.1661,-0.1641,-0.164,-0.1632,-0.162,-0.1604,-0.16,-0.1594,-0.1573,-0.1549,-0.1535,-0.1527,-0.1518,-0.1515,-0.1534,-0.152,-0.1455,-0.1444,-0.1434,-0.1429,-0.1535,-0.1535,-0.159,-0.1591,-0.1591]}]]